Powrót do katalogu

STARLINK-37785

AktywnyŁącznośćSSO
NORAD 69345·PAYLOAD·🇺🇸 United States

Wystrzelony Jun 3, 2026 z Vandenberg Space Force Base

Loading…

Następne Przeloty (najbliższe 24 godziny)

TLE

ŚwieżeSource: CelesTrak SupGP

Epoka: Sep 15, 2026, 03:32 UTC

1 69345C 26122S   26258.14770833 -.00051515  00000+0 -15992-2 0  2580
2 69345  97.2826 286.8702 0001295  94.4335 158.8760 15.33464387    11

Śledź STARLINK-37785 w czasie rzeczywistym z AllMySat

Download on the App Store